Location: St Paul
(44.9440°N, 93.0930°W)
Time: 20:38:30
(UTC-06:00)

Tiangong 1 - Visible Passes

Search period start: 16 December 2017 00:00
Search period end: 26 December 2017 00:00
Orbit: 274 x 301 km, 42.8° (Epoch: 16 December)

Date Brightness Start Highest point End Pass type
(mag) Time Alt. Az. Time Alt. Az. Time Alt. Az.
20 Dec 3.5 06:14:42 10° SSW 06:16:12 15° SSE 06:17:44 10° ESE visible
21 Dec 2.8 06:17:56 12° SSW 06:19:41 22° SSE 06:21:44 10° ESE visible
22 Dec 2.0 06:21:43 18° SW 06:23:05 32° SSE 06:25:23 10° E visible
23 Dec 1.5 06:25:15 23° SW 06:26:26 42° S 06:28:51 10° E visible
24 Dec 1.1 06:28:34 25° WSW 06:29:42 49° S 06:32:09 10° E visible
25 Dec 1.1 06:31:43 25° WSW 06:32:52 49° S 06:35:19 10° ESE visible
